Location: Unspecified
(38.9800°N, 0.0000°E)
Time: 00:30:43
(UTC+00:00)

S-56A Canister/Altair - Visible Passes

Search period start: 04 April 2026 00:00
Search period end: 14 April 2026 00:00
Orbit: 632 x 2485 km, 38.9° (Epoch: 28 March)

Date Brightness Start Highest point End Pass type
(mag) Time Alt. Az. Time Alt. Az. Time Alt. Az.
6 Apr 11.5 04:50:55 10° SSE 04:58:38 18° SE 05:06:58 10° E visible
7 Apr 11.6 04:17:50 10° SSE 04:23:24 14° SE 04:29:21 10° E visible
9 Apr 11.1 05:05:18 10° SSW 05:15:58 34° SE 05:28:29 10° E visible
10 Apr 11.0 04:30:55 10° S 04:40:36 29° SE 04:52:07 10° E visible
11 Apr 11.0 03:56:46 10° S 04:05:20 24° SE 04:15:32 10° E visible
12 Apr 11.0 03:22:59 10° SSE 03:30:10 19° SE 03:38:39 10° E visible
13 Apr 11.0 02:49:44 10° SSE 02:55:07 15° SE 03:01:16 10° E visible
13 Apr 10.5 04:47:27 10° SSW 04:58:13 48° SE 05:11:59 10° ENE visible
